Flag for United Kingdom Weather past 2 weeks in Cardiff, Wales, United Kingdom

Now
48 °F

Overcast.


Feels Like: 45 °F
Forecast: N/A
Wind: 7 mph from Southeast

Location: Wales Airport

Current Time: Mar 27, 2015 at 7:16:45 PM

Latest Report: Mar 27, 2015 at 6:50 PM


Visibility: N/A

Pressure: 30.09 "Hg

Humidity: 87%

Dew point: 45 °F

Location of CardiffLocation

Historic Weather in Cardiff — Graph

°F

Cardiff temperature yesterday

Maximum temperature yesterday: 55 °F (at 2:50 PM)
Minimum temperature yesterday: 39 °F (at 10:20 PM)
Average temperature yesterday: 47 °F

Past Weeks' High & Low Weather Summary

 TemperatureHumidityPressure
High55 °F (Mar 26, 2:50 PM)100% (Mar 12, 10:20 PM)30.57 "Hg (Mar 12, 10:20 PM)
Low34 °F (Mar 20, 6:20 AM)47% (Mar 26, 3:20 PM)29.47 "Hg (Mar 26, 5:20 AM)
Average43 °F82%30.20 "Hg
* Reported Mar 12 6:20 PM — Mar 27 6:20 PM, Cardiff, Weather by CustomWeather, © 2015

Note: Actual official high and low records may vary slightly from our data, if they occured in-between our weather recording intervals... More about our weather records

Advertising

Cardiff weather history for previous 24 hours

 ConditionsComfort  
Time TempWeatherWind HumidityBarometerVisibility
6:20 PM
Fri, Mar 27
48 °FOvercast.7 mph76%30.09 "HgN/A
5:50 PM48 °FOvercast.7 mph76%30.09 "HgN/A
5:20 PM48 °FOvercast.7 mph76%30.09 "HgN/A
4:50 PM50 °FOvercast.5 mph67%30.09 "HgN/A
4:20 PM50 °FOvercast.2 mph67%30.09 "HgN/A
3:50 PM50 °FPartly sunny.3 mph67%30.09 "HgN/A
3:20 PM52 °FCool.3 mph62%30.09 "HgN/A
2:50 PM52 °FPartly sunny.6 mph62%30.12 "HgN/A
2:20 PM50 °FOvercast.5 mph62%30.12 "HgN/A
1:50 PM50 °FPartly sunny.5 mph62%30.12 "HgN/A
1:20 PM50 °FPartly sunny.6 mph67%30.12 "HgN/A
12:50 PM50 °FPassing clouds.5 mph67%30.12 "HgN/A
12:20 PM50 °FPassing clouds.3 mph67%30.12 "HgN/A
11:50 AM48 °FPartly sunny.5 mph71%30.12 "HgN/A
11:20 AM48 °FScattered clouds.7 mph71%30.12 "HgN/A
10:50 AM48 °FScattered clouds.6 mph71%30.12 "HgN/A
10:20 AM46 °FScattered clouds.6 mph76%30.12 "HgN/A
9:50 AM46 °FPassing clouds.5 mph82%30.12 "HgN/A
9:20 AM45 °FQuite cool.5 mph87%30.12 "HgN/A
8:50 AM45 °FScattered clouds.3 mph87%30.12 "HgN/A
8:20 AM43 °FScattered clouds.3 mph93%30.12 "HgN/A
7:50 AM43 °FOvercast.2 mph93%30.12 "HgN/A
7:20 AM39 °FOvercast.5 mph93%30.12 "HgN/A
6:50 AM37 °FOvercast.3 mph93%30.12 "HgN/A
6:20 AM37 °FScattered clouds.5 mph100%30.12 "HgN/A
5:50 AM37 °FChilly.5 mph100%30.09 "HgN/A
5:20 AM37 °FChilly.6 mph93%30.09 "HgN/A
4:50 AM37 °FChilly.5 mph93%30.09 "HgN/A
4:20 AM37 °FChilly.6 mph93%30.09 "HgN/A
3:50 AM39 °FChilly.5 mph87%30.09 "HgN/A
3:20 AM37 °FChilly.6 mph93%30.07 "HgN/A
2:50 AM37 °FChilly.7 mph93%30.07 "HgN/A
2:20 AM37 °FChilly.6 mph93%30.07 "HgN/A
1:50 AM37 °FChilly.7 mph93%30.07 "HgN/A
1:20 AM39 °FChilly.7 mph87%30.07 "HgN/A
12:50 AM39 °FChilly.7 mph87%30.07 "HgN/A
12:20 AM37 °FChilly.7 mph93%30.04 "HgN/A
11:50 PM
Thu, Mar 26
39 °FChilly.6 mph87%30.04 "HgN/A
11:20 PM39 °FChilly.8 mph87%30.04 "HgN/A
10:50 PM39 °FChilly.7 mph87%30.01 "HgN/A
10:20 PM39 °FChilly.9 mph87%30.01 "HgN/A
9:50 PM41 °FQuite cool.9 mph76%30.01 "HgN/A
9:20 PM41 °FQuite cool.8 mph76%29.98 "HgN/A
8:50 PM43 °FQuite cool.9 mph71%29.98 "HgN/A
8:20 PM45 °FQuite cool.10 mph66%29.95 "HgN/A
7:50 PM45 °FQuite cool.5 mph66%29.95 "HgN/A
7:20 PM45 °FQuite cool.12 mph66%29.92 "HgN/A
Weather by CustomWeather, © 2015

See weather overviewHow to use our weather pages